RLU130 UUDL-UUWW

Flight info

Callsign RLU130
Flight time 0h 57m
Altitude 36000
Route RIRAT2D RIRAT T289 MATUB T187 ROMTA ROMTA3B
Aircraft E145/M-SABDFGRW/S

Departure

Time 2026-04-16 20:50
Airport Golden Ring Yaroslavl International Airport (UUDL)

Arrival

Time 2026-04-16 21:47
Airport Vnukovo International Airport (UUWW)
Time Latitude Longitude Altitude Speed Heading
2026-04-16 20:29 57.56361 40.17631 296 ft 0 kts 198°
2026-04-16 20:43 57.56361 40.17630 296 ft 0 kts 211°
2026-04-16 20:43 57.56361 40.17617 296 ft 2 kts 286°
2026-04-16 20:44 57.56375 40.17586 296 ft 3 kts 317°
2026-04-16 20:44 57.56401 40.17580 296 ft 5 kts 37°
2026-04-16 20:44 57.56425 40.17648 296 ft 5 kts 51°
2026-04-16 20:44 57.56451 40.17668 296 ft 3 kts
2026-04-16 20:45 57.56456 40.17668 296 ft 0 kts 355°
2026-04-16 20:45 57.56470 40.17661 296 ft 4 kts 345°
2026-04-16 20:45 57.56511 40.17630 297 ft 7 kts 334°
2026-04-16 20:45 57.56545 40.17563 297 ft 8 kts 270°
2026-04-16 20:46 57.56508 40.17404 297 ft 20 kts 243°
2026-04-16 20:46 57.56431 40.17114 297 ft 27 kts 244°
2026-04-16 20:46 57.56346 40.16794 296 ft 28 kts 243°
2026-04-16 20:46 57.56258 40.16458 294 ft 29 kts 244°
2026-04-16 20:47 57.56162 40.16104 292 ft 31 kts 244°
2026-04-16 20:47 57.56065 40.15738 290 ft 32 kts 243°
2026-04-16 20:47 57.55961 40.15360 287 ft 33 kts 243°
2026-04-16 20:47 57.55855 40.14963 285 ft 34 kts 244°
2026-04-16 20:48 57.55750 40.14563 284 ft 34 kts 243°
2026-04-16 20:48 57.55662 40.14241 283 ft 26 kts 243°
2026-04-16 20:48 57.55587 40.13963 282 ft 21 kts 242°
2026-04-16 20:48 57.55516 40.13717 280 ft 18 kts 242°
2026-04-16 20:49 57.55482 40.13604 278 ft 6 kts 345°
2026-04-16 20:49 57.55512 40.13681 280 ft 8 kts 64°
2026-04-16 20:49 57.55618 40.14074 282 ft 69 kts 63°
2026-04-16 20:49 57.55931 40.15242 287 ft 130 kts 63°
2026-04-16 20:50 57.56371 40.16865 637 ft 148 kts 64°
2026-04-16 20:50 57.56853 40.18624 1223 ft 157 kts 63°
2026-04-16 20:50 57.57343 40.20460 1807 ft 165 kts 66°
2026-04-16 20:50 57.57873 40.22473 2223 ft 182 kts 65°
2026-04-16 20:51 57.58478 40.24765 2559 ft 209 kts 65°
2026-04-16 20:51 57.59138 40.27204 3223 ft 219 kts 65°
2026-04-16 20:51 57.59581 40.29868 3975 ft 220 kts 92°
2026-04-16 20:51 57.59089 40.32509 4707 ft 218 kts 133°
2026-04-16 20:52 57.57816 40.33915 5379 ft 219 kts 171°
2026-04-16 20:52 57.56338 40.33481 5962 ft 226 kts 212°
2026-04-16 20:52 57.55238 40.31685 7252 ft 204 kts 228°
2026-04-16 20:52 57.54563 40.29324 7816 ft 219 kts 246°
2026-04-16 20:53 57.54035 40.26659 8469 ft 225 kts 246°
2026-04-16 20:53 57.53460 40.23774 8634 ft 253 kts 246°
2026-04-16 20:53 57.52818 40.20570 9077 ft 267 kts 246°
2026-04-16 20:53 57.52176 40.17426 9923 ft 265 kts 246°
2026-04-16 20:54 57.51521 40.14191 10470 ft 274 kts 246°
2026-04-16 20:54 57.50830 40.10783 10955 ft 286 kts 246°
2026-04-16 20:54 57.50127 40.07319 11418 ft 297 kts 246°
2026-04-16 20:54 57.49580 40.03542 11841 ft 312 kts 263°
2026-04-16 20:55 57.49918 39.99506 12307 ft 327 kts 289°
2026-04-16 20:55 57.51163 39.95910 12882 ft 335 kts 307°
2026-04-16 20:55 57.52467 39.92332 13472 ft 337 kts 300°
2026-04-16 20:55 57.53717 39.88634 14028 ft 340 kts 300°
2026-04-16 20:56 57.54970 39.84897 14595 ft 343 kts 299°
2026-04-16 20:56 57.56220 39.81158 15173 ft 345 kts 300°
2026-04-16 20:56 57.57487 39.77362 15744 ft 348 kts 300°
2026-04-16 20:56 57.58755 39.73559 16300 ft 350 kts 300°
2026-04-16 20:57 57.60041 39.69695 16836 ft 353 kts 300°
2026-04-16 20:57 57.61336 39.65797 17327 ft 356 kts 299°
2026-04-16 20:57 57.62628 39.61900 17826 ft 359 kts 299°
2026-04-16 20:57 57.63935 39.57954 18432 ft 358 kts 299°
2026-04-16 20:58 57.65233 39.54027 19100 ft 356 kts 299°
2026-04-16 20:58 57.66522 39.50121 19726 ft 354 kts 300°
2026-04-16 20:58 57.67806 39.46225 20329 ft 353 kts 299°
2026-04-16 20:58 57.69081 39.42350 20906 ft 353 kts 299°
2026-04-16 20:59 57.70354 39.38472 21509 ft 352 kts 299°
2026-04-16 20:59 57.71628 39.34587 22120 ft 351 kts 298°
2026-04-16 20:59 57.72910 39.30673 22718 ft 350 kts 298°
2026-04-16 20:59 57.74121 39.26796 23251 ft 348 kts 291°
2026-04-16 21:00 57.74648 39.22477 23775 ft 341 kts 267°
2026-04-16 21:00 57.74245 39.18188 24272 ft 335 kts 248°
2026-04-16 21:00 57.73504 39.14072 24821 ft 334 kts 248°
2026-04-16 21:00 57.72748 39.09967 25386 ft 333 kts 247°
2026-04-16 21:01 57.71976 39.05827 25977 ft 331 kts 247°
2026-04-16 21:01 57.71212 39.01763 26532 ft 330 kts 247°
2026-04-16 21:01 57.70432 38.97628 27082 ft 329 kts 247°
2026-04-16 21:01 57.69674 38.93623 27608 ft 328 kts 246°
2026-04-16 21:02 57.68912 38.89606 28123 ft 327 kts 246°
2026-04-16 21:02 57.68159 38.85645 28630 ft 327 kts 246°
2026-04-16 21:02 57.67403 38.81678 29131 ft 326 kts 246°
2026-04-16 21:03 57.65879 38.73696 30102 ft 325 kts 246°
2026-04-16 21:03 57.65130 38.69791 30592 ft 324 kts 246°
2026-04-16 21:03 57.64369 38.65830 31045 ft 323 kts 246°
2026-04-16 21:03 57.63619 38.61932 31488 ft 322 kts 246°
2026-04-16 21:04 57.62868 38.58037 31889 ft 323 kts 246°
2026-04-16 21:04 57.62051 38.54163 32296 ft 319 kts 239°
2026-04-16 21:04 57.60876 38.50716 32684 ft 314 kts 226°
2026-04-16 21:04 57.59363 38.47883 33079 ft 308 kts 217°
2026-04-16 21:05 57.57728 38.45282 33458 ft 308 kts 217°
2026-04-16 21:05 57.56124 38.42712 33844 ft 307 kts 217°
2026-04-16 21:05 57.54496 38.40104 34213 ft 307 kts 217°
2026-04-16 21:05 57.52890 38.37534 34568 ft 307 kts 217°
2026-04-16 21:06 57.51276 38.34953 34914 ft 306 kts 216°
2026-04-16 21:06 57.49668 38.32386 35209 ft 305 kts 216°
2026-04-16 21:06 57.48057 38.29817 35449 ft 306 kts 216°
2026-04-16 21:06 57.46446 38.27250 35697 ft 306 kts 216°
2026-04-16 21:07 57.44836 38.24688 35928 ft 307 kts 217°
2026-04-16 21:07 57.43209 38.22102 36038 ft 309 kts 217°
2026-04-16 21:07 57.41571 38.19502 36056 ft 313 kts 217°
2026-04-16 21:08 57.38229 38.14207 36057 ft 324 kts 217°
2026-04-16 21:08 57.34754 38.08715 36055 ft 334 kts 217°
2026-04-16 21:09 57.31165 38.03056 36051 ft 345 kts 217°
2026-04-16 21:09 57.27487 37.97275 36052 ft 354 kts 217°
2026-04-16 21:10 57.23677 37.91301 36054 ft 363 kts 217°
2026-04-16 21:10 57.19814 37.85262 36047 ft 371 kts 217°
2026-04-16 21:11 57.15841 37.79069 36062 ft 379 kts 217°
2026-04-16 21:11 57.11775 37.72822 36046 ft 384 kts 213°
2026-04-16 21:12 57.07080 37.68412 36060 ft 385 kts 199°
2026-04-16 21:12 57.02086 37.64724 36053 ft 391 kts 200°
2026-04-16 21:13 56.97035 37.60981 36060 ft 395 kts 200°
2026-04-16 21:13 56.91919 37.57198 36053 ft 399 kts 200°
2026-04-16 21:14 56.86782 37.53411 36054 ft 398 kts 200°
2026-04-16 21:14 56.81654 37.49641 36062 ft 397 kts 200°
2026-04-16 21:15 56.76535 37.45890 36057 ft 397 kts 200°
2026-04-16 21:15 56.73949 37.44000 35744 ft 398 kts 200°
2026-04-16 21:15 56.71404 37.42141 35312 ft 398 kts 200°
2026-04-16 21:15 56.68856 37.40282 34871 ft 394 kts 200°
2026-04-16 21:16 56.66328 37.38432 34436 ft 386 kts 200°
2026-04-16 21:16 56.63888 37.36575 33608 ft 392 kts 200°
2026-04-16 21:16 56.61326 37.34635 32454 ft 408 kts 200°
2026-04-16 21:16 56.58709 37.32653 31857 ft 405 kts 200°
2026-04-16 21:17 56.56163 37.30729 31417 ft 399 kts 199°
2026-04-16 21:17 56.53624 37.28814 30915 ft 394 kts 199°
2026-04-16 21:17 56.51082 37.27038 30353 ft 389 kts 198°
2026-04-16 21:17 56.48627 37.25341 29688 ft 382 kts 198°
2026-04-16 21:18 56.46226 37.23249 28770 ft 383 kts 207°
2026-04-16 21:18 56.44091 37.20417 27937 ft 383 kts 218°
2026-04-16 21:18 56.42261 37.17010 27194 ft 382 kts 226°
2026-04-16 21:18 56.40796 37.13082 26470 ft 383 kts 237°
2026-04-16 21:19 56.39689 37.08754 25767 ft 381 kts 241°
2026-04-16 21:19 56.38549 37.04455 25028 ft 376 kts 239°
2026-04-16 21:19 56.37394 37.00326 24322 ft 372 kts 238°
2026-04-16 21:19 56.36205 36.96164 23623 ft 368 kts 238°
2026-04-16 21:20 56.35052 36.92158 22951 ft 363 kts 238°
2026-04-16 21:20 56.33886 36.88126 22160 ft 360 kts 238°
2026-04-16 21:20 56.32729 36.84215 21407 ft 354 kts 234°
2026-04-16 21:20 56.31118 36.81076 20661 ft 345 kts 212°
2026-04-16 21:21 56.28971 36.79426 20151 ft 331 kts 191°
2026-04-16 21:21 56.26710 36.79349 19536 ft 331 kts 172°
2026-04-16 21:21 56.24456 36.80060 19176 ft 326 kts 169°
2026-04-16 21:21 56.22260 36.80894 18778 ft 325 kts 168°
2026-04-16 21:22 56.20041 36.81802 18481 ft 323 kts 168°
2026-04-16 21:22 56.17881 36.82711 18197 ft 322 kts 167°
2026-04-16 21:22 56.15713 36.83635 17904 ft 322 kts 167°
2026-04-16 21:22 56.13528 36.84569 17749 ft 323 kts 167°
2026-04-16 21:23 56.11367 36.85494 17658 ft 320 kts 167°
2026-04-16 21:23 56.09190 36.86426 17478 ft 320 kts 167°
2026-04-16 21:23 56.07025 36.87352 17258 ft 321 kts 167°
2026-04-16 21:23 56.04871 36.88273 17111 ft 319 kts 167°
2026-04-16 21:24 56.02707 36.89196 17051 ft 315 kts 167°
2026-04-16 21:24 56.00614 36.90089 17050 ft 310 kts 167°
2026-04-16 21:24 55.98500 36.90989 17055 ft 312 kts 167°
2026-04-16 21:24 55.96383 36.91890 17051 ft 314 kts 167°
2026-04-16 21:25 55.94291 36.92779 17049 ft 301 kts 168°
2026-04-16 21:25 55.92297 36.93266 16964 ft 289 kts 176°
2026-04-16 21:25 55.90268 36.93536 16596 ft 294 kts 176°
2026-04-16 21:25 55.88224 36.93816 16405 ft 294 kts 176°
2026-04-16 21:26 55.86190 36.94096 16281 ft 293 kts 176°
2026-04-16 21:26 55.84168 36.94374 16092 ft 293 kts 176°
2026-04-16 21:26 55.82142 36.94652 15950 ft 292 kts 176°
2026-04-16 21:26 55.80121 36.94929 15818 ft 291 kts 176°
2026-04-16 21:27 55.78083 36.95208 15688 ft 290 kts 176°
2026-04-16 21:27 55.76100 36.95479 15532 ft 290 kts 176°
2026-04-16 21:27 55.74088 36.95754 15375 ft 289 kts 176°
2026-04-16 21:27 55.72088 36.96215 15212 ft 290 kts 171°
2026-04-16 21:28 55.70116 36.96783 15062 ft 289 kts 172°
2026-04-16 21:28 55.68129 36.97343 14825 ft 285 kts 172°
2026-04-16 21:28 55.66194 36.97884 14352 ft 286 kts 172°
2026-04-16 21:28 55.64222 36.98436 13822 ft 284 kts 172°
2026-04-16 21:29 55.62300 36.98972 13265 ft 284 kts 172°
2026-04-16 21:29 55.60366 36.99511 12729 ft 282 kts 172°
2026-04-16 21:29 55.58429 36.99762 12199 ft 279 kts 181°
2026-04-16 21:29 55.56495 36.99748 11684 ft 277 kts 181°
2026-04-16 21:30 55.54575 36.99747 11152 ft 276 kts 181°
2026-04-16 21:30 55.52696 36.99748 10671 ft 273 kts 181°
2026-04-16 21:30 55.50799 36.99747 10160 ft 273 kts 181°
2026-04-16 21:30 55.48877 36.99747 9813 ft 274 kts 181°
2026-04-16 21:31 55.46995 36.99747 9623 ft 270 kts 181°
2026-04-16 21:31 55.45126 36.99747 9400 ft 270 kts 181°
2026-04-16 21:31 55.43250 36.99747 9163 ft 270 kts 181°
2026-04-16 21:31 55.41386 36.99747 8941 ft 268 kts 181°
2026-04-16 21:32 55.39551 36.99557 8919 ft 256 kts 187°
2026-04-16 21:32 55.37828 36.99220 8896 ft 245 kts 187°
2026-04-16 21:32 55.36127 36.98893 8740 ft 247 kts 187°
2026-04-16 21:32 55.34434 36.98569 8738 ft 244 kts 187°
2026-04-16 21:33 55.32780 36.98252 8525 ft 242 kts 187°
2026-04-16 21:33 55.31096 36.97930 8207 ft 244 kts 187°
2026-04-16 21:33 55.29419 36.98161 7944 ft 247 kts 161°
2026-04-16 21:33 55.28039 36.99971 7696 ft 253 kts 129°
2026-04-16 21:34 55.27425 37.02819 7440 ft 259 kts 96°
2026-04-16 21:34 55.27736 37.05933 7176 ft 262 kts 72°
2026-04-16 21:34 55.28225 37.08973 6958 ft 259 kts 79°
2026-04-16 21:34 55.28616 37.12001 6926 ft 250 kts 79°
2026-04-16 21:35 55.28981 37.14965 6831 ft 250 kts 80°
2026-04-16 21:35 55.29342 37.17937 6777 ft 247 kts 80°
2026-04-16 21:35 55.29699 37.20889 6652 ft 248 kts 80°
2026-04-16 21:35 55.30054 37.23842 6514 ft 247 kts 80°
2026-04-16 21:36 55.30406 37.26767 6346 ft 248 kts 80°
2026-04-16 21:36 55.30763 37.29740 6199 ft 248 kts 80°
2026-04-16 21:36 55.31117 37.32703 6068 ft 247 kts 80°
2026-04-16 21:36 55.31697 37.35475 5931 ft 246 kts 55°
2026-04-16 21:37 55.32990 37.37349 5645 ft 243 kts 24°
2026-04-16 21:37 55.34647 37.37926 5279 ft 245 kts
2026-04-16 21:37 55.36284 37.38314 5274 ft 232 kts
2026-04-16 21:37 55.37857 37.38720 5221 ft 225 kts
2026-04-16 21:38 55.39397 37.39117 5038 ft 224 kts
2026-04-16 21:38 55.40939 37.39542 4834 ft 224 kts
2026-04-16 21:38 55.42457 37.39952 4659 ft 222 kts
2026-04-16 21:38 55.43995 37.40367 4472 ft 222 kts
2026-04-16 21:39 55.45501 37.40772 4304 ft 221 kts
2026-04-16 21:39 55.47031 37.41184 4166 ft 220 kts
2026-04-16 21:39 55.48526 37.41587 4034 ft 219 kts
2026-04-16 21:39 55.50045 37.41998 3894 ft 218 kts
2026-04-16 21:40 55.51516 37.42395 3874 ft 209 kts
2026-04-16 21:40 55.52912 37.42767 3841 ft 199 kts
2026-04-16 21:40 55.54281 37.43131 3775 ft 201 kts
2026-04-16 21:40 55.55671 37.43500 3778 ft 200 kts
2026-04-16 21:41 55.57040 37.43865 3767 ft 197 kts
2026-04-16 21:41 55.58395 37.44226 3622 ft 195 kts
2026-04-16 21:41 55.59725 37.44582 3380 ft 196 kts
2026-04-16 21:41 55.61070 37.44941 3134 ft 196 kts
2026-04-16 21:42 55.62418 37.45301 2908 ft 195 kts
2026-04-16 21:42 55.63763 37.45330 2656 ft 193 kts 341°
2026-04-16 21:42 55.64979 37.44475 2485 ft 187 kts 335°
2026-04-16 21:42 55.66147 37.43632 2431 ft 177 kts 335°
2026-04-16 21:43 55.67273 37.42817 2247 ft 172 kts 335°
2026-04-16 21:43 55.68402 37.41997 2190 ft 179 kts 335°
2026-04-16 21:43 55.69437 37.40916 2144 ft 167 kts 307°
2026-04-16 21:43 55.69951 37.39179 2169 ft 158 kts 289°
2026-04-16 21:44 55.70387 37.37353 2174 ft 161 kts 284°
2026-04-16 21:44 55.70334 37.35450 2168 ft 154 kts 241°
2026-04-16 21:44 55.69585 37.34200 2178 ft 152 kts 205°
2026-04-16 21:44 55.68625 37.33416 2178 ft 151 kts 204°
2026-04-16 21:45 55.67724 37.32706 2117 ft 134 kts 203°
2026-04-16 21:45 55.66902 37.32070 1946 ft 126 kts 203°
2026-04-16 21:45 55.66094 37.31450 1787 ft 128 kts 203°
2026-04-16 21:45 55.65286 37.30829 1617 ft 127 kts 203°
2026-04-16 21:46 55.64467 37.30199 1443 ft 129 kts 203°
2026-04-16 21:46 55.63638 37.29568 1266 ft 131 kts 203°
2026-04-16 21:46 55.62810 37.28934 1087 ft 129 kts 203°
2026-04-16 21:46 55.61991 37.28307 912 ft 128 kts 202°
2026-04-16 21:47 55.61168 37.27685 743 ft 127 kts 202°
2026-04-16 21:47 55.60424 37.27119 695 ft 96 kts 204°
2026-04-16 21:47 55.59983 37.26776 694 ft 48 kts 202°
2026-04-16 21:47 55.59755 37.26604 694 ft 29 kts 204°
2026-04-16 21:48 55.59580 37.26470 694 ft 25 kts 203°
2026-04-16 21:48 55.59492 37.26445 694 ft 9 kts 144°
2026-04-16 21:48 55.59481 37.26562 694 ft 11 kts 73°
2026-04-16 21:48 55.59515 37.26709 694 ft 14 kts 69°
2026-04-16 21:49 55.59561 37.26856 694 ft 14 kts 52°
2026-04-16 21:49 55.59634 37.27000 694 ft 17 kts 46°
2026-04-16 21:49 55.59722 37.27162 694 ft 19 kts 46°
2026-04-16 21:49 55.59814 37.27334 694 ft 18 kts 45°
2026-04-16 21:50 55.59887 37.27468 694 ft 9 kts 46°
2026-04-16 21:50 55.59933 37.27553 694 ft 9 kts 48°
2026-04-16 21:50 55.59967 37.27646 694 ft 8 kts 49°
2026-04-16 21:50 55.60001 37.27731 694 ft 8 kts 77°
2026-04-16 21:51 55.59988 37.27824 694 ft 7 kts 101°
2026-04-16 21:51 55.60002 37.27893 694 ft 5 kts 37°
2026-04-16 21:51 55.60033 37.27917 695 ft 3 kts 22°
2026-04-16 21:51 55.60035 37.27918 695 ft 0 kts 22°